Temperatura ambiente en Pisuerga en Salinas de Pisuerga

 
Fecha y horaTemperatura ambiente (ºC)
23/05/2019 21:0012,50
23/05/2019 22:0011,90
23/05/2019 23:0011,40
24/05/2019 00:0011,10
24/05/2019 01:0010,90
24/05/2019 02:0010,40
24/05/2019 03:008,80
24/05/2019 04:007,90
24/05/2019 05:006,70
24/05/2019 06:005,65
24/05/2019 07:004,75
24/05/2019 08:006,60
24/05/2019 09:0010,05
24/05/2019 10:0011,40
24/05/2019 11:0012,50
24/05/2019 12:0013,85
24/05/2019 13:0014,10
24/05/2019 14:0014,45
24/05/2019 15:0014,80
24/05/2019 16:0014,50
24/05/2019 17:0014,40
24/05/2019 18:0014,60
24/05/2019 19:0014,05
24/05/2019 20:0012,40
24/05/2019 21:009,55
24/05/2019 22:008,90
24/05/2019 23:008,65
25/05/2019 00:007,60
25/05/2019 01:007,25
25/05/2019 02:005,60
25/05/2019 03:005,05
25/05/2019 04:004,40
25/05/2019 05:004,25
25/05/2019 06:006,75
25/05/2019 07:007,95
25/05/2019 08:008,40
25/05/2019 09:0010,75
25/05/2019 10:0012,15
25/05/2019 11:0013,30
25/05/2019 12:0014,15
25/05/2019 13:0015,70
25/05/2019 14:0016,45
25/05/2019 15:0016,55
25/05/2019 16:0015,40
25/05/2019 17:0014,75
25/05/2019 18:0015,55
25/05/2019 19:0017,25
25/05/2019 20:0014,80
25/05/2019 21:009,80
25/05/2019 22:008,25
25/05/2019 23:008,20
26/05/2019 00:006,05
26/05/2019 01:005,75
26/05/2019 02:005,10
26/05/2019 03:004,20
26/05/2019 04:003,95
26/05/2019 05:003,50
26/05/2019 06:002,95
26/05/2019 07:003,40
26/05/2019 08:006,15
26/05/2019 09:009,85
26/05/2019 10:0012,15
26/05/2019 11:0014,05
26/05/2019 12:0015,60
26/05/2019 13:0016,40
26/05/2019 14:0017,15
26/05/2019 15:0017,70
26/05/2019 16:0018,30
26/05/2019 17:0018,95
26/05/2019 18:0018,35
26/05/2019 19:0016,50
26/05/2019 20:0013,70
26/05/2019 21:0010,60
26/05/2019 22:009,15
26/05/2019 23:008,90
27/05/2019 00:008,70
27/05/2019 01:008,20
27/05/2019 02:008,20
27/05/2019 03:008,15
27/05/2019 04:007,95
27/05/2019 05:007,60
27/05/2019 06:007,25
27/05/2019 07:007,20
27/05/2019 08:007,50
27/05/2019 09:009,30
27/05/2019 10:0012,35
27/05/2019 11:0014,80
27/05/2019 12:0016,90
27/05/2019 13:0017,55
27/05/2019 14:0019,05
27/05/2019 15:0018,70
27/05/2019 16:0019,00
27/05/2019 17:0019,30
27/05/2019 18:0018,00
27/05/2019 19:0015,60
27/05/2019 20:0013,25
27/05/2019 21:0012,50
27/05/2019 22:0010,75
27/05/2019 23:009,60
28/05/2019 00:008,90
28/05/2019 01:008,10
28/05/2019 02:007,65
28/05/2019 03:007,45
28/05/2019 04:007,35
28/05/2019 05:007,20
28/05/2019 06:004,90
28/05/2019 07:005,50
28/05/2019 08:007,55
28/05/2019 09:008,85
28/05/2019 10:0010,65
28/05/2019 11:0012,50
28/05/2019 12:0013,05
28/05/2019 13:0014,75
28/05/2019 14:0015,60
28/05/2019 15:0015,95
28/05/2019 16:0015,75
28/05/2019 17:0015,85
28/05/2019 18:0014,65
28/05/2019 19:0013,65
28/05/2019 20:0012,40
28/05/2019 21:009,90
28/05/2019 22:008,85
28/05/2019 23:008,30
29/05/2019 00:008,15
29/05/2019 01:008,00
29/05/2019 02:007,65
29/05/2019 03:007,45
29/05/2019 04:004,45
29/05/2019 05:003,15
29/05/2019 06:002,30
29/05/2019 07:002,45
29/05/2019 08:005,75
29/05/2019 09:009,50
29/05/2019 10:0012,00
29/05/2019 11:0014,05
29/05/2019 12:0016,45
29/05/2019 13:0017,95
29/05/2019 14:0018,45
29/05/2019 15:0020,30
29/05/2019 16:0020,20
29/05/2019 17:0020,55
29/05/2019 18:0020,70
29/05/2019 19:0020,65
29/05/2019 20:0019,30
29/05/2019 21:0015,00
29/05/2019 22:0012,30
29/05/2019 23:0010,70
30/05/2019 00:008,20
30/05/2019 01:006,55
30/05/2019 02:005,05
30/05/2019 03:004,50
30/05/2019 04:003,70
30/05/2019 05:003,60
30/05/2019 06:003,35
30/05/2019 07:004,10
30/05/2019 08:007,15
30/05/2019 09:0011,50
30/05/2019 10:0015,70
30/05/2019 11:0018,65
30/05/2019 12:0021,25
30/05/2019 13:0022,75
30/05/2019 14:0023,90
30/05/2019 15:0024,80
30/05/2019 16:0025,55
30/05/2019 17:0025,00
30/05/2019 18:0024,55
30/05/2019 19:0023,95
30/05/2019 20:0022,45
30/05/2019 21:0019,40
30/05/2019 22:0015,85
30/05/2019 23:0011,45
31/05/2019 00:009,80
31/05/2019 01:008,30
31/05/2019 02:007,75
31/05/2019 03:005,90
31/05/2019 04:005,55
31/05/2019 05:005,35
31/05/2019 06:005,40
31/05/2019 07:005,80
31/05/2019 08:009,75
31/05/2019 09:0014,95
31/05/2019 10:0019,10
31/05/2019 11:0022,50
31/05/2019 12:0024,60
31/05/2019 13:0025,35
31/05/2019 14:0026,30
31/05/2019 15:0027,00
31/05/2019 16:0027,85
31/05/2019 17:0028,10
31/05/2019 18:0028,05
31/05/2019 19:0027,45
31/05/2019 20:0026,10
31/05/2019 21:0021,05
31/05/2019 22:0015,60
31/05/2019 23:0013,00
01/06/2019 00:0011,20
01/06/2019 01:0010,10
01/06/2019 02:009,90
01/06/2019 03:009,05
01/06/2019 04:008,80
01/06/2019 05:008,70
01/06/2019 06:008,40
01/06/2019 07:008,70
01/06/2019 08:0013,30
01/06/2019 09:0017,40
01/06/2019 10:0022,10
01/06/2019 11:0024,80
01/06/2019 12:0026,90
01/06/2019 13:0028,05
01/06/2019 14:0028,95
01/06/2019 15:0029,45
01/06/2019 16:0029,75
01/06/2019 17:0030,00
01/06/2019 18:0030,50
01/06/2019 19:0030,90
01/06/2019 20:0028,05
01/06/2019 21:0022,70
01/06/2019 22:0018,65
01/06/2019 23:0015,70
02/06/2019 00:0014,50
02/06/2019 01:0012,70
02/06/2019 02:0012,10
02/06/2019 03:0010,30
02/06/2019 04:009,30
02/06/2019 05:009,00
02/06/2019 06:008,70
02/06/2019 07:008,95
02/06/2019 08:0013,10
02/06/2019 09:0017,45
02/06/2019 10:0021,05
02/06/2019 11:0023,55
02/06/2019 12:0025,25
02/06/2019 13:0026,50
02/06/2019 14:0026,70
02/06/2019 15:0027,10
02/06/2019 16:0027,85
02/06/2019 17:0027,05
02/06/2019 18:0026,45
02/06/2019 19:0026,75
02/06/2019 20:0022,15
02/06/2019 21:0018,75
02/06/2019 22:0016,25
02/06/2019 23:0014,10
03/06/2019 00:0011,65
03/06/2019 01:0011,20
03/06/2019 02:0010,30
03/06/2019 03:008,65
03/06/2019 04:008,05
03/06/2019 05:008,00
03/06/2019 06:008,60
03/06/2019 07:008,65
03/06/2019 08:0011,10
03/06/2019 09:0014,50
03/06/2019 10:0016,65
03/06/2019 11:0017,80
03/06/2019 12:0021,70
03/06/2019 13:0023,80
03/06/2019 14:0025,20
03/06/2019 15:0025,65
03/06/2019 16:0026,15
03/06/2019 17:0026,75
03/06/2019 18:0026,70
03/06/2019 19:0026,45
03/06/2019 20:0024,80
03/06/2019 21:0023,05
03/06/2019 22:0016,70
03/06/2019 23:0014,45
04/06/2019 00:0013,10
04/06/2019 01:0011,70
04/06/2019 02:0010,75
04/06/2019 03:009,25
04/06/2019 04:008,85
04/06/2019 05:009,05
04/06/2019 06:009,05
04/06/2019 07:0010,25
04/06/2019 08:0011,90
04/06/2019 09:0013,00
04/06/2019 10:0014,10
04/06/2019 11:0015,25
04/06/2019 12:0016,50
04/06/2019 13:0017,80
04/06/2019 14:0019,55
04/06/2019 15:0019,90
04/06/2019 16:0019,80
04/06/2019 17:0020,05
04/06/2019 18:0019,80
04/06/2019 19:0016,70
04/06/2019 20:0014,10
04/06/2019 21:0010,65
04/06/2019 22:008,95
04/06/2019 23:008,90
05/06/2019 00:008,40
05/06/2019 01:008,15
05/06/2019 02:007,75
05/06/2019 03:007,35
05/06/2019 04:007,10
05/06/2019 05:006,60
05/06/2019 06:006,60
05/06/2019 07:006,60
05/06/2019 08:007,05
05/06/2019 09:008,85
05/06/2019 10:0010,20
05/06/2019 11:0011,65
05/06/2019 12:0012,35
05/06/2019 13:0010,55
05/06/2019 14:0011,40
05/06/2019 15:0010,35
05/06/2019 16:009,95
05/06/2019 17:0010,20
05/06/2019 18:0010,25
05/06/2019 19:009,00
05/06/2019 20:008,30
05/06/2019 21:007,15
05/06/2019 22:006,40
05/06/2019 23:006,05
06/06/2019 00:005,90
06/06/2019 01:005,60
06/06/2019 02:005,55
06/06/2019 03:005,50
06/06/2019 04:004,85
06/06/2019 05:004,60
06/06/2019 06:004,90
06/06/2019 07:004,30
06/06/2019 08:005,40
06/06/2019 09:006,75
06/06/2019 10:008,35
06/06/2019 11:0010,40
06/06/2019 12:0011,40
06/06/2019 13:0013,55
06/06/2019 14:0014,75
06/06/2019 15:0015,55
06/06/2019 16:0016,40
06/06/2019 17:0016,90
06/06/2019 18:0016,95
06/06/2019 19:0016,20
06/06/2019 20:0010,75
06/06/2019 21:0010,30
06/06/2019 22:0010,20
06/06/2019 23:008,05
07/06/2019 00:007,60
07/06/2019 01:007,45
07/06/2019 02:006,75
07/06/2019 03:006,80
07/06/2019 04:006,35
07/06/2019 05:006,15
07/06/2019 06:005,65
07/06/2019 07:005,20
07/06/2019 08:005,50
07/06/2019 09:006,70
07/06/2019 10:008,15
07/06/2019 11:0010,25
07/06/2019 12:0011,60
07/06/2019 13:0012,80
07/06/2019 14:0014,05
07/06/2019 15:0014,75
07/06/2019 16:0014,95
07/06/2019 17:0014,90
07/06/2019 18:0015,25
07/06/2019 19:0014,05
07/06/2019 20:0011,75
07/06/2019 21:008,75
07/06/2019 22:007,00
07/06/2019 23:005,60
08/06/2019 00:004,75
08/06/2019 01:003,60
08/06/2019 02:002,60
08/06/2019 03:002,25
08/06/2019 04:002,35
08/06/2019 05:003,10
08/06/2019 06:003,45
08/06/2019 07:004,05
08/06/2019 08:005,90
08/06/2019 09:008,40
08/06/2019 10:009,40
08/06/2019 11:0011,05
08/06/2019 12:0013,75
08/06/2019 13:0015,30
08/06/2019 14:0016,85
08/06/2019 15:0017,75
08/06/2019 16:0019,50
08/06/2019 17:0020,25
08/06/2019 18:0018,65
08/06/2019 19:0016,30
08/06/2019 20:0013,40
08/06/2019 21:0011,45
08/06/2019 22:0010,05
08/06/2019 23:009,30
09/06/2019 00:008,30
09/06/2019 01:007,80
09/06/2019 02:007,25
09/06/2019 03:007,35
09/06/2019 04:008,00
09/06/2019 05:008,50
09/06/2019 06:008,90
09/06/2019 07:009,30
09/06/2019 08:009,65
09/06/2019 09:0010,45
09/06/2019 10:0010,85
09/06/2019 11:0011,80
09/06/2019 12:0013,40
09/06/2019 13:0015,15
09/06/2019 14:0014,60
09/06/2019 15:0015,10
09/06/2019 16:0014,30
09/06/2019 17:0014,65
09/06/2019 18:0013,50
09/06/2019 19:0011,45
09/06/2019 20:009,60
09/06/2019 21:009,30
09/06/2019 22:008,60
09/06/2019 23:008,40
10/06/2019 00:007,50
10/06/2019 01:006,85
10/06/2019 02:006,40
10/06/2019 03:005,75
10/06/2019 04:006,10
10/06/2019 05:005,95
10/06/2019 06:004,50
10/06/2019 07:004,65
10/06/2019 08:006,20
10/06/2019 09:007,90
10/06/2019 10:008,05
10/06/2019 11:009,40
10/06/2019 12:0011,20
10/06/2019 13:0012,60
10/06/2019 14:0012,85
10/06/2019 15:0012,85
10/06/2019 16:0012,75
10/06/2019 17:0010,80
10/06/2019 18:009,90
10/06/2019 19:009,10
10/06/2019 20:008,85
10/06/2019 21:008,20
10/06/2019 22:007,10
10/06/2019 23:006,65
11/06/2019 00:006,70
11/06/2019 01:006,55
11/06/2019 02:005,90
11/06/2019 03:004,80
11/06/2019 04:004,30
11/06/2019 05:003,90
11/06/2019 06:004,55
11/06/2019 07:005,00
11/06/2019 08:006,70
11/06/2019 09:006,75
11/06/2019 10:007,75
11/06/2019 11:008,85
11/06/2019 12:009,70
11/06/2019 13:0010,90
11/06/2019 14:0011,35
11/06/2019 15:0012,15
11/06/2019 16:0012,70
11/06/2019 17:0013,15
11/06/2019 18:0012,70
11/06/2019 19:0011,95
11/06/2019 20:0010,40
11/06/2019 21:009,35
11/06/2019 22:007,95
11/06/2019 23:005,15
12/06/2019 00:004,20
12/06/2019 01:003,20
12/06/2019 02:001,70
12/06/2019 03:000,90
12/06/2019 04:00-0,05
12/06/2019 05:00-0,70
12/06/2019 06:00-0,75
12/06/2019 07:00-0,40
12/06/2019 08:002,65
12/06/2019 09:006,15
12/06/2019 10:009,60
12/06/2019 11:0011,00
12/06/2019 12:0012,35
12/06/2019 13:0013,20
12/06/2019 14:0013,65
12/06/2019 15:0014,60
12/06/2019 16:0015,20
12/06/2019 17:0015,15
12/06/2019 18:0015,50
12/06/2019 19:0014,55
12/06/2019 20:0013,10
12/06/2019 21:009,30
12/06/2019 22:007,40
12/06/2019 23:005,40
13/06/2019 00:004,30
13/06/2019 02:002,25
13/06/2019 03:001,80
13/06/2019 04:001,45
13/06/2019 05:000,85
13/06/2019 06:000,75
13/06/2019 07:001,65
13/06/2019 08:004,35
13/06/2019 09:008,35
13/06/2019 10:0010,60
13/06/2019 11:0012,10
13/06/2019 12:0014,40
13/06/2019 13:0017,05
13/06/2019 14:0019,40
13/06/2019 15:0019,90
13/06/2019 16:0020,60
13/06/2019 17:0021,05
13/06/2019 18:0021,10
13/06/2019 19:0018,30
13/06/2019 20:0014,50
13/06/2019 21:0011,55
13/06/2019 22:008,65
13/06/2019 23:007,60
14/06/2019 00:005,75
14/06/2019 01:004,50
14/06/2019 02:003,65
14/06/2019 03:002,50
14/06/2019 04:001,90
14/06/2019 05:001,35
14/06/2019 06:000,80
14/06/2019 07:001,75
14/06/2019 08:004,45
14/06/2019 09:008,35
14/06/2019 10:0010,55
14/06/2019 11:0013,40
14/06/2019 12:0016,30
14/06/2019 13:0018,75
14/06/2019 14:0019,50
14/06/2019 15:0021,20
14/06/2019 16:0020,15
14/06/2019 17:0018,80
14/06/2019 18:0018,25
14/06/2019 19:0016,05
14/06/2019 20:0013,80
14/06/2019 21:0010,95
14/06/2019 22:009,75
14/06/2019 23:008,45
15/06/2019 00:008,15
15/06/2019 01:008,25
15/06/2019 02:008,10
15/06/2019 03:007,55
15/06/2019 04:007,50
15/06/2019 05:007,60
15/06/2019 06:007,50
15/06/2019 07:007,75
15/06/2019 08:008,75
15/06/2019 09:009,65
15/06/2019 10:0011,65
15/06/2019 11:0012,60
15/06/2019 12:0014,10
15/06/2019 13:0015,55
15/06/2019 14:0016,70
15/06/2019 15:0017,40
15/06/2019 16:0019,00
15/06/2019 17:0019,65
15/06/2019 18:0019,65
15/06/2019 19:0018,20
15/06/2019 20:0015,80
15/06/2019 21:0011,80
15/06/2019 22:009,90
15/06/2019 23:008,25
16/06/2019 00:006,55
16/06/2019 01:005,40
16/06/2019 02:004,45
16/06/2019 03:003,45
16/06/2019 04:003,25
16/06/2019 05:003,10
16/06/2019 06:002,95
16/06/2019 07:003,45
16/06/2019 08:006,70
16/06/2019 09:0010,10
16/06/2019 10:0013,95
16/06/2019 11:0017,10
16/06/2019 12:0020,05
16/06/2019 13:0021,30
16/06/2019 14:0022,50
16/06/2019 15:0023,70
16/06/2019 16:0024,60
16/06/2019 17:0025,10
16/06/2019 18:0024,95
16/06/2019 19:0024,15
16/06/2019 20:0021,50
16/06/2019 21:0018,15
16/06/2019 22:0016,25
16/06/2019 23:0014,05
17/06/2019 00:0011,30
17/06/2019 01:0010,20
17/06/2019 02:009,00
17/06/2019 03:008,10
17/06/2019 04:007,80
17/06/2019 05:007,50
17/06/2019 06:006,95
17/06/2019 07:007,05
17/06/2019 08:0010,45
17/06/2019 09:0014,15
17/06/2019 10:0018,15
17/06/2019 11:0021,10
17/06/2019 12:0023,50
17/06/2019 13:0024,70
17/06/2019 14:0025,20
17/06/2019 15:0025,80
17/06/2019 16:0025,40
17/06/2019 17:0024,70
17/06/2019 18:0024,85
17/06/2019 19:0024,10
17/06/2019 20:0021,95
17/06/2019 21:0021,40
17/06/2019 22:0020,50
17/06/2019 23:0021,15
18/06/2019 00:0020,45
18/06/2019 01:0018,50
18/06/2019 02:0013,60
18/06/2019 03:0012,50
18/06/2019 04:0011,40
18/06/2019 05:009,20
18/06/2019 06:007,60
18/06/2019 07:007,10
18/06/2019 08:0010,00
18/06/2019 09:0016,20
18/06/2019 10:0020,20
18/06/2019 11:0021,80
18/06/2019 12:0022,75
18/06/2019 13:0023,40
18/06/2019 14:0024,45
18/06/2019 15:0024,95
18/06/2019 16:0025,00
18/06/2019 17:0024,00
18/06/2019 18:0022,95
18/06/2019 19:0022,50
18/06/2019 20:0021,45
18/06/2019 21:0018,85
18/06/2019 22:0017,45
18/06/2019 23:0015,90
19/06/2019 00:0015,25
19/06/2019 01:0015,10
19/06/2019 02:0014,80
19/06/2019 03:0013,80
19/06/2019 04:0014,00
19/06/2019 05:0014,10
19/06/2019 06:0014,00
19/06/2019 07:0013,35
19/06/2019 08:0013,70
19/06/2019 09:0014,75
19/06/2019 10:0015,40
19/06/2019 11:0016,25
19/06/2019 12:0016,95
19/06/2019 13:0018,35
19/06/2019 14:0019,30
19/06/2019 15:0019,75
19/06/2019 16:0020,55
19/06/2019 17:0021,25
19/06/2019 18:0021,10
19/06/2019 19:0021,10
19/06/2019 20:0017,30
19/06/2019 22:0013,20
19/06/2019 23:0012,00
20/06/2019 00:0010,10
20/06/2019 01:009,85
20/06/2019 02:0010,25
20/06/2019 03:0010,20
20/06/2019 04:0010,30
20/06/2019 05:0010,65
20/06/2019 06:0010,95
20/06/2019 07:0010,90
20/06/2019 08:0012,20
20/06/2019 09:0013,40
20/06/2019 10:0014,40
20/06/2019 11:0015,35
20/06/2019 12:0016,00
20/06/2019 13:0017,00
20/06/2019 14:0017,85
20/06/2019 15:0018,20
20/06/2019 16:0017,60
20/06/2019 17:0015,60
20/06/2019 18:0015,15
20/06/2019 19:0014,35
20/06/2019 20:0013,60
20/06/2019 21:0012,30
20/06/2019 22:0011,10
20/06/2019 23:0011,05
21/06/2019 00:0010,70
21/06/2019 01:0010,60
21/06/2019 02:0010,50
21/06/2019 03:0010,30
21/06/2019 04:009,20
21/06/2019 05:008,50
21/06/2019 06:007,30
21/06/2019 07:006,90
21/06/2019 08:009,20
21/06/2019 09:0011,10
21/06/2019 10:0012,30
21/06/2019 11:0012,45
21/06/2019 12:0013,15
21/06/2019 13:0015,70
21/06/2019 14:0015,90
21/06/2019 15:0016,25
21/06/2019 16:0015,80
21/06/2019 17:0017,20
21/06/2019 18:0017,75
21/06/2019 19:0017,05
21/06/2019 20:0015,00
21/06/2019 21:0013,25
21/06/2019 22:0011,50
21/06/2019 23:0010,05
22/06/2019 00:008,60
22/06/2019 01:007,25
22/06/2019 02:006,90
22/06/2019 03:007,70
22/06/2019 04:006,90
22/06/2019 05:006,40
22/06/2019 06:006,25
22/06/2019 07:006,55
22/06/2019 08:009,00
22/06/2019 09:0012,55
22/06/2019 10:0016,50
22/06/2019 11:0017,80
22/06/2019 12:0020,45
22/06/2019 13:0022,25
22/06/2019 14:0022,75
22/06/2019 15:0024,10
22/06/2019 16:0025,00
22/06/2019 17:0025,05
22/06/2019 18:0024,50
22/06/2019 19:0024,30
22/06/2019 20:0022,85
22/06/2019 21:0019,85
22/06/2019 22:0017,15
22/06/2019 23:0014,65
23/06/2019 00:0012,15
23/06/2019 01:0011,20
23/06/2019 02:0010,50
23/06/2019 03:009,90
23/06/2019 04:0010,15
23/06/2019 05:009,65
23/06/2019 06:009,00
23/06/2019 07:009,00
23/06/2019 08:0012,05
23/06/2019 09:0017,20
23/06/2019 10:0019,20
23/06/2019 11:0020,40
23/06/2019 12:0022,55
23/06/2019 13:0024,10
23/06/2019 14:0023,60
23/06/2019 15:0021,65
23/06/2019 16:0022,60
23/06/2019 17:0022,75
23/06/2019 18:0022,20
23/06/2019 19:0021,80
23/06/2019 20:0020,80
23/06/2019 21:0019,85
23/06/2019 22:0017,00
23/06/2019 23:0014,30
24/06/2019 00:0012,00
24/06/2019 01:0010,90
24/06/2019 02:0010,05
24/06/2019 03:0010,30
24/06/2019 04:0010,90
24/06/2019 05:0011,75
24/06/2019 06:0012,45
24/06/2019 07:0012,15
24/06/2019 08:0012,55
24/06/2019 09:0013,75
24/06/2019 10:0017,45
24/06/2019 11:0019,75
24/06/2019 12:0021,20
24/06/2019 13:0022,40
24/06/2019 14:0022,85
24/06/2019 15:0023,40
24/06/2019 16:0022,75
24/06/2019 17:0022,15
24/06/2019 18:0020,65
24/06/2019 19:0019,60
24/06/2019 20:0017,65
24/06/2019 21:0016,95
24/06/2019 22:0016,25
24/06/2019 23:0014,65
25/06/2019 00:0013,40
25/06/2019 01:0013,10
25/06/2019 02:0013,00
25/06/2019 03:0013,05
25/06/2019 04:0013,05
25/06/2019 05:0012,65
25/06/2019 06:0012,10
25/06/2019 07:0012,35
25/06/2019 08:0014,10
25/06/2019 09:0016,40
25/06/2019 10:0018,15
25/06/2019 11:0020,65
25/06/2019 12:0021,65
25/06/2019 13:0023,50
25/06/2019 14:0024,15
25/06/2019 15:0024,10
25/06/2019 16:0025,30
25/06/2019 17:0025,10
25/06/2019 18:0024,35
25/06/2019 19:0024,20
25/06/2019 20:0022,90
25/06/2019 21:0020,95
25/06/2019 22:0018,65
25/06/2019 23:0015,70
26/06/2019 00:0014,85
26/06/2019 01:0013,40
26/06/2019 02:0012,80
26/06/2019 03:0013,65
26/06/2019 04:0013,65
26/06/2019 05:0012,70
26/06/2019 06:0012,30
26/06/2019 07:0012,50
26/06/2019 08:0015,15
26/06/2019 09:0018,60
26/06/2019 10:0021,85
26/06/2019 11:0025,00
26/06/2019 12:0027,00
26/06/2019 13:0028,20
26/06/2019 14:0029,10
26/06/2019 15:0029,80
26/06/2019 16:0030,65
26/06/2019 17:0031,60
26/06/2019 18:0031,55
26/06/2019 19:0031,60
26/06/2019 20:0031,40
26/06/2019 21:0025,95
26/06/2019 22:0021,85
26/06/2019 23:0020,25
27/06/2019 00:0017,85
27/06/2019 01:0015,95
27/06/2019 02:0014,70
27/06/2019 03:0013,85
27/06/2019 04:0013,55
27/06/2019 05:0013,20
27/06/2019 06:0012,60
27/06/2019 07:0012,85
27/06/2019 08:0015,35
27/06/2019 09:0019,70
27/06/2019 10:0024,45
27/06/2019 11:0027,05
27/06/2019 12:0029,90
27/06/2019 13:0032,65
27/06/2019 14:0033,90
27/06/2019 15:0034,65
27/06/2019 16:0035,85
27/06/2019 17:0036,00
27/06/2019 18:0035,80
27/06/2019 19:0035,20
27/06/2019 20:0034,25
27/06/2019 21:0029,05
27/06/2019 22:0027,80
27/06/2019 23:0026,40
28/06/2019 00:0020,20
28/06/2019 01:0018,80
28/06/2019 02:0016,60
28/06/2019 03:0014,75
28/06/2019 04:0013,70
28/06/2019 05:0012,55
28/06/2019 06:0011,85
28/06/2019 07:0011,95
28/06/2019 08:0014,90
28/06/2019 09:0018,40
28/06/2019 10:0023,15
28/06/2019 11:0027,45
28/06/2019 12:0029,20
28/06/2019 13:0030,50
28/06/2019 14:0031,90
28/06/2019 15:0033,35
28/06/2019 16:0034,40
28/06/2019 17:0033,90
28/06/2019 18:0033,25
28/06/2019 19:0032,45
28/06/2019 20:0030,75
28/06/2019 21:0028,70
28/06/2019 22:0025,90
28/06/2019 23:0021,05
29/06/2019 00:0018,70
29/06/2019 01:0016,70
29/06/2019 02:0015,85
29/06/2019 03:0015,05
29/06/2019 04:0014,15
29/06/2019 05:0013,90
29/06/2019 06:0014,20
29/06/2019 07:0013,80
29/06/2019 08:0016,50
29/06/2019 09:0021,25
29/06/2019 10:0026,30
29/06/2019 11:0029,75
29/06/2019 12:0032,05
29/06/2019 13:0033,05
29/06/2019 14:0034,10
29/06/2019 15:0034,60
29/06/2019 16:0034,70
29/06/2019 17:0034,95
29/06/2019 18:0035,35
29/06/2019 19:0031,20
29/06/2019 20:0027,10
29/06/2019 21:0024,30
29/06/2019 22:0020,45
29/06/2019 23:0018,80
30/06/2019 00:0017,45
30/06/2019 01:0015,40
30/06/2019 02:0014,10
30/06/2019 03:0012,70
30/06/2019 04:0012,35
30/06/2019 05:0011,10
30/06/2019 06:0010,20
30/06/2019 07:0010,55
30/06/2019 08:0013,15
30/06/2019 09:0016,10
30/06/2019 10:0019,85
30/06/2019 11:0023,40
30/06/2019 12:0027,05
30/06/2019 13:0028,75
30/06/2019 14:0030,40
30/06/2019 15:0032,15
30/06/2019 16:0032,50
30/06/2019 17:0032,30
30/06/2019 18:0032,50
30/06/2019 19:0033,00
30/06/2019 20:0023,90
30/06/2019 21:0019,50
30/06/2019 22:0018,00
30/06/2019 23:0016,85
01/07/2019 00:0014,65
01/07/2019 01:0013,70
01/07/2019 02:0012,65
01/07/2019 03:0012,40
01/07/2019 04:0011,75
01/07/2019 05:0011,45
01/07/2019 06:0011,05
01/07/2019 07:0011,50
01/07/2019 08:0012,40
01/07/2019 09:0014,65
01/07/2019 10:0017,35
01/07/2019 11:0019,30
01/07/2019 12:0021,35
01/07/2019 13:0022,35
01/07/2019 14:0023,35
01/07/2019 15:0021,75
01/07/2019 16:0021,90
01/07/2019 17:0022,25
01/07/2019 18:0022,25
01/07/2019 19:0020,10
01/07/2019 20:0015,85
01/07/2019 21:0016,20
01/07/2019 22:0014,80
01/07/2019 23:0014,60
02/07/2019 00:0013,55
02/07/2019 01:0013,60
02/07/2019 02:0013,45
02/07/2019 03:0011,95
02/07/2019 04:0011,50
02/07/2019 05:0010,60
02/07/2019 06:009,70
02/07/2019 07:009,65
02/07/2019 08:0012,65
02/07/2019 09:0015,60
02/07/2019 10:0017,45
02/07/2019 11:0020,45
02/07/2019 12:0022,20
02/07/2019 13:0022,80
02/07/2019 14:0023,55
02/07/2019 15:0023,75
02/07/2019 16:0023,45
02/07/2019 17:0023,80
02/07/2019 18:0022,00
02/07/2019 19:0021,25
02/07/2019 20:0019,05
02/07/2019 21:0016,80
02/07/2019 22:0014,60
02/07/2019 23:0013,30
03/07/2019 00:0012,20
03/07/2019 01:0012,00
03/07/2019 02:0011,50
03/07/2019 03:0011,50
03/07/2019 04:0010,95
03/07/2019 05:0010,95
03/07/2019 06:0011,85
03/07/2019 07:0012,10
03/07/2019 08:0012,40
03/07/2019 09:0013,75
03/07/2019 10:0017,75
03/07/2019 11:0020,60
03/07/2019 12:0024,45
03/07/2019 13:0026,40
03/07/2019 14:0027,75
03/07/2019 15:0029,40
03/07/2019 16:0029,10
03/07/2019 17:0018,55
03/07/2019 18:0021,05
03/07/2019 19:0019,35
03/07/2019 20:0017,80
03/07/2019 21:0017,10
03/07/2019 22:0016,25
03/07/2019 23:0016,00
04/07/2019 00:0016,10
04/07/2019 01:0015,85
04/07/2019 02:0015,80
04/07/2019 03:0015,70
04/07/2019 04:0013,40
04/07/2019 05:0012,55
04/07/2019 06:0011,80
04/07/2019 07:0011,90
04/07/2019 08:0015,40
04/07/2019 09:0018,00
04/07/2019 10:0021,45
04/07/2019 11:0024,35
04/07/2019 12:0024,90
04/07/2019 13:0025,75
04/07/2019 14:0026,60
04/07/2019 15:0027,85
04/07/2019 16:0028,80
04/07/2019 17:0025,90
04/07/2019 18:0018,45
04/07/2019 19:0016,95
04/07/2019 20:0018,60
04/07/2019 21:0018,10
04/07/2019 22:0017,70
04/07/2019 23:0016,75
05/07/2019 00:0016,40
05/07/2019 01:0015,20
05/07/2019 02:0014,80
05/07/2019 03:0013,70
05/07/2019 04:0013,15
05/07/2019 05:0012,90
05/07/2019 06:0012,50
05/07/2019 07:0012,45
05/07/2019 08:0014,20
05/07/2019 09:0017,10
05/07/2019 10:0020,45
05/07/2019 11:0022,50
05/07/2019 12:0024,85
05/07/2019 13:0025,85
05/07/2019 14:0026,95
05/07/2019 15:0027,60
05/07/2019 16:0027,40
05/07/2019 17:0028,60
05/07/2019 18:0027,65
05/07/2019 19:0029,00
05/07/2019 20:0027,90
05/07/2019 21:0023,60
05/07/2019 22:0018,70
05/07/2019 23:0015,40
06/07/2019 00:0013,75
06/07/2019 01:0012,70
06/07/2019 02:0012,40
06/07/2019 03:0011,60
06/07/2019 04:0011,40
06/07/2019 05:0010,50
06/07/2019 06:0010,80
06/07/2019 07:0012,05
06/07/2019 08:0013,05
06/07/2019 09:0015,80
06/07/2019 10:0017,50
06/07/2019 11:0020,45
06/07/2019 12:0023,30
06/07/2019 13:0025,00
06/07/2019 14:0026,00
06/07/2019 15:0026,55
06/07/2019 16:0027,10
06/07/2019 17:0027,45
06/07/2019 18:0027,70
06/07/2019 19:0028,10
06/07/2019 20:0026,80
06/07/2019 21:0019,50
06/07/2019 22:0016,70
06/07/2019 23:0015,20
07/07/2019 00:0013,55
07/07/2019 01:0012,60
07/07/2019 02:0011,50
07/07/2019 03:0010,40
07/07/2019 04:0010,05
07/07/2019 05:009,35
07/07/2019 06:008,70
07/07/2019 07:008,75
07/07/2019 08:0011,30
07/07/2019 09:0013,95
07/07/2019 10:0016,75
07/07/2019 11:0019,10
07/07/2019 12:0021,70
07/07/2019 13:0024,25
07/07/2019 14:0026,20
07/07/2019 15:0027,05
07/07/2019 16:0028,15
07/07/2019 17:0028,25
07/07/2019 18:0028,30
07/07/2019 19:0025,70
07/07/2019 20:0022,90
07/07/2019 21:0018,00
07/07/2019 22:0015,90
07/07/2019 23:0014,55
08/07/2019 00:0013,90
08/07/2019 01:0014,60
08/07/2019 02:0014,00
08/07/2019 03:0012,30
08/07/2019 04:0011,95
08/07/2019 05:0013,25
08/07/2019 06:0012,85
08/07/2019 07:0012,65
08/07/2019 08:0012,60
08/07/2019 09:0013,05
08/07/2019 10:0015,25
08/07/2019 11:0017,75
08/07/2019 12:0021,20
08/07/2019 13:0024,40
08/07/2019 14:0023,55
08/07/2019 15:0022,35
08/07/2019 16:0023,55
08/07/2019 17:0020,30
08/07/2019 18:0019,05
08/07/2019 19:0019,10
08/07/2019 20:0018,60
08/07/2019 21:0017,60
08/07/2019 22:0017,15
08/07/2019 23:0016,10
09/07/2019 00:0014,75
09/07/2019 01:0014,10
09/07/2019 02:0014,20
09/07/2019 03:0013,70
09/07/2019 04:0013,90
09/07/2019 05:0013,80
09/07/2019 06:0013,80
09/07/2019 07:0014,90
09/07/2019 08:0015,60
09/07/2019 09:0015,65
09/07/2019 10:0016,25
09/07/2019 11:0019,20
09/07/2019 12:0021,00
09/07/2019 13:0021,35
09/07/2019 14:0022,00
09/07/2019 15:0022,85
09/07/2019 16:0022,20
09/07/2019 17:0021,75
09/07/2019 18:0021,95
09/07/2019 19:0021,60
09/07/2019 20:0020,60
09/07/2019 21:0018,25
09/07/2019 22:0014,50
09/07/2019 23:0012,85
10/07/2019 00:0012,15
10/07/2019 01:0010,90
10/07/2019 02:009,90
10/07/2019 03:008,80
10/07/2019 04:008,15
10/07/2019 05:007,20
10/07/2019 06:006,90
10/07/2019 07:006,70
10/07/2019 08:009,35
10/07/2019 09:0013,50
10/07/2019 10:0017,65
10/07/2019 11:0020,80
10/07/2019 12:0022,60
10/07/2019 13:0023,75
10/07/2019 14:0024,50
10/07/2019 15:0025,90
10/07/2019 16:0025,65
10/07/2019 17:0026,15
10/07/2019 18:0025,55
10/07/2019 19:0024,75
10/07/2019 20:0024,00
10/07/2019 21:0021,30
10/07/2019 22:0017,85
10/07/2019 23:0015,75
11/07/2019 00:0014,35
11/07/2019 01:0013,15
11/07/2019 02:0012,50
11/07/2019 03:0011,65
11/07/2019 04:0011,70
11/07/2019 05:0010,90
11/07/2019 06:0010,60
11/07/2019 07:0010,80
11/07/2019 08:0013,55
11/07/2019 09:0017,15
11/07/2019 10:0020,70
11/07/2019 11:0023,60
11/07/2019 12:0026,70
11/07/2019 13:0028,50
11/07/2019 14:0029,50
11/07/2019 15:0030,10
11/07/2019 16:0030,35
11/07/2019 17:0030,05
11/07/2019 18:0030,05
11/07/2019 19:0029,10
11/07/2019 20:0027,20
11/07/2019 21:0023,75
11/07/2019 22:0020,30
11/07/2019 23:0018,45
12/07/2019 00:0016,95
12/07/2019 01:0015,20
12/07/2019 02:0014,05
12/07/2019 03:0012,85
12/07/2019 04:0012,15
12/07/2019 05:0011,70
12/07/2019 06:0011,20
12/07/2019 07:0011,60
12/07/2019 08:0014,55
12/07/2019 09:0018,70
12/07/2019 10:0022,15
12/07/2019 11:0024,90
12/07/2019 12:0027,45
12/07/2019 13:0029,25
12/07/2019 14:0031,80
12/07/2019 15:0032,30
12/07/2019 16:0032,40
12/07/2019 17:0032,35
12/07/2019 18:0030,25
12/07/2019 19:0027,55
12/07/2019 20:0026,15
12/07/2019 21:0022,50
12/07/2019 22:0020,20
12/07/2019 23:0018,55
13/07/2019 00:0017,50
13/07/2019 01:0017,60
13/07/2019 02:0017,30
13/07/2019 03:0015,80
13/07/2019 04:0015,05
13/07/2019 05:0013,15
13/07/2019 06:0012,20
13/07/2019 07:0011,85
13/07/2019 08:0013,95
13/07/2019 09:0017,40
13/07/2019 10:0019,70
13/07/2019 11:0021,50
13/07/2019 12:0022,55
13/07/2019 13:0023,25
13/07/2019 14:0024,05
13/07/2019 15:0025,45
13/07/2019 16:0024,75
13/07/2019 17:0024,30
13/07/2019 18:0024,70
13/07/2019 19:0023,50
13/07/2019 20:0020,55
13/07/2019 21:0017,15
13/07/2019 22:0016,30
13/07/2019 23:0016,05
14/07/2019 00:0015,80
14/07/2019 01:0015,65
14/07/2019 02:0015,85
14/07/2019 03:0015,95
14/07/2019 04:0015,45
14/07/2019 05:0014,30
14/07/2019 06:0013,60
14/07/2019 07:0013,20
14/07/2019 08:0014,55
14/07/2019 09:0017,30
14/07/2019 10:0018,85
14/07/2019 11:0020,15
14/07/2019 12:0021,85
14/07/2019 13:0022,85
14/07/2019 14:0023,65
14/07/2019 15:0024,20
14/07/2019 16:0024,30
14/07/2019 17:0024,15
14/07/2019 18:0023,60
14/07/2019 19:0022,60
14/07/2019 20:0020,95
14/07/2019 21:0018,60
14/07/2019 22:0016,60
14/07/2019 23:0015,95
15/07/2019 00:0014,45
15/07/2019 01:0013,00
15/07/2019 02:0012,10
15/07/2019 03:0011,95
15/07/2019 04:0010,65
15/07/2019 05:009,65
15/07/2019 06:009,00
15/07/2019 07:008,60
15/07/2019 08:0010,60
15/07/2019 09:0014,55
15/07/2019 10:0017,60
15/07/2019 11:0020,20
15/07/2019 12:0021,55
15/07/2019 13:0022,50
15/07/2019 14:0023,50
15/07/2019 15:0024,05
15/07/2019 16:0024,30
15/07/2019 17:0023,75
15/07/2019 18:0023,15
15/07/2019 19:0023,20
15/07/2019 20:0020,65
15/07/2019 21:0017,85
15/07/2019 22:0015,50
15/07/2019 23:0014,15
16/07/2019 00:0012,95
16/07/2019 01:0011,25
16/07/2019 02:0010,45
16/07/2019 03:009,50
16/07/2019 04:008,80
16/07/2019 05:008,25
16/07/2019 06:007,65
16/07/2019 07:007,80
16/07/2019 08:0010,60
16/07/2019 09:0014,40
16/07/2019 10:0018,50
16/07/2019 11:0020,20
16/07/2019 12:0022,05
16/07/2019 13:0023,25
16/07/2019 14:0024,30
16/07/2019 15:0024,90
16/07/2019 16:0024,45
16/07/2019 17:0023,65
16/07/2019 18:0022,65
16/07/2019 19:0021,75
16/07/2019 20:0020,65
16/07/2019 21:0019,25
16/07/2019 22:0017,00
16/07/2019 23:0015,90
17/07/2019 00:0015,90
17/07/2019 01:0015,35
17/07/2019 02:0014,70
17/07/2019 03:0013,20
17/07/2019 04:0012,60
17/07/2019 05:0011,45
17/07/2019 06:0011,40
17/07/2019 07:0011,50
17/07/2019 08:0013,05
17/07/2019 09:0015,70
17/07/2019 10:0018,20
17/07/2019 11:0020,35
17/07/2019 12:0021,70
17/07/2019 13:0022,75
17/07/2019 14:0023,65
17/07/2019 15:0023,75
17/07/2019 16:0022,60
17/07/2019 17:0022,70
17/07/2019 18:0022,40
17/07/2019 19:0021,05
17/07/2019 20:0019,40
17/07/2019 21:0016,20
17/07/2019 22:0014,80
17/07/2019 23:0013,85
18/07/2019 00:0012,30
18/07/2019 01:0011,60
18/07/2019 02:0010,40
18/07/2019 03:009,75
18/07/2019 04:009,20
18/07/2019 05:008,25
18/07/2019 06:008,10
18/07/2019 07:008,50
18/07/2019 08:009,85
18/07/2019 09:0012,45
18/07/2019 10:0014,60
18/07/2019 11:0017,15
18/07/2019 12:0020,45
18/07/2019 13:0022,35
18/07/2019 14:0023,80
18/07/2019 15:0024,50
18/07/2019 16:0024,50
18/07/2019 17:0024,15
18/07/2019 18:0023,65
18/07/2019 19:0023,05
18/07/2019 20:0022,65
18/07/2019 21:0019,85
18/07/2019 22:0016,85
18/07/2019 23:0015,00
19/07/2019 00:0014,05
19/07/2019 01:0012,65
19/07/2019 02:0013,00
19/07/2019 03:0012,80
19/07/2019 04:0012,05
19/07/2019 05:0011,45
19/07/2019 06:0010,35
19/07/2019 07:009,90
19/07/2019 08:0011,90
19/07/2019 09:0015,70
19/07/2019 10:0019,60
19/07/2019 11:0022,80
19/07/2019 12:0026,25
19/07/2019 13:0028,30
19/07/2019 14:0029,60
19/07/2019 15:0030,35
19/07/2019 16:0031,10
19/07/2019 17:0031,10
19/07/2019 18:0031,20
19/07/2019 19:0031,15
19/07/2019 20:0030,20
19/07/2019 21:0023,85
19/07/2019 22:0021,10
19/07/2019 23:0018,50
20/07/2019 00:0017,05
20/07/2019 01:0015,75
20/07/2019 02:0014,20
20/07/2019 03:0012,95
20/07/2019 04:0012,05
20/07/2019 05:0011,50
20/07/2019 06:0010,70
20/07/2019 07:0010,40
20/07/2019 08:0012,80
20/07/2019 09:0016,50
20/07/2019 10:0019,70
20/07/2019 11:0023,00
20/07/2019 12:0024,30
20/07/2019 13:0026,00
20/07/2019 14:0027,00
20/07/2019 15:0027,45
20/07/2019 16:0027,85
20/07/2019 17:0027,40
20/07/2019 18:0025,50
20/07/2019 19:0024,45
20/07/2019 20:0022,00
20/07/2019 21:0018,95
20/07/2019 22:0017,00
20/07/2019 23:0016,45
21/07/2019 00:0014,80
21/07/2019 01:0013,50
21/07/2019 02:0012,30
21/07/2019 03:0011,40
21/07/2019 04:0010,95
21/07/2019 05:0010,45
21/07/2019 06:0010,10
21/07/2019 07:0011,20
21/07/2019 08:0013,25
21/07/2019 09:0016,10
21/07/2019 10:0018,65
21/07/2019 11:0020,55
21/07/2019 12:0022,35
21/07/2019 13:0023,10
21/07/2019 14:0024,70
21/07/2019 15:0026,25
21/07/2019 16:0027,65
21/07/2019 17:0028,50
21/07/2019 18:0027,95
21/07/2019 19:0027,25
21/07/2019 20:0023,90
21/07/2019 21:0020,70
21/07/2019 22:0018,05
21/07/2019 23:0016,60
22/07/2019 00:0015,20
22/07/2019 01:0014,30
22/07/2019 02:0013,40
22/07/2019 03:0012,70
22/07/2019 04:0012,25
22/07/2019 05:0011,90
22/07/2019 06:0011,45
22/07/2019 07:0011,75
22/07/2019 08:0013,90
22/07/2019 09:0016,80
22/07/2019 10:0020,55
22/07/2019 11:0024,35
22/07/2019 12:0028,25
22/07/2019 13:0029,55
22/07/2019 14:0031,60
22/07/2019 15:0033,00
22/07/2019 16:0032,40
22/07/2019 17:0033,30
22/07/2019 18:0029,10
22/07/2019 19:0024,15
22/07/2019 20:0022,50
22/07/2019 21:0020,85
22/07/2019 22:0019,65
22/07/2019 23:0018,90
23/07/2019 00:0017,85
23/07/2019 01:0016,90
23/07/2019 02:0016,20
23/07/2019 03:0015,40
23/07/2019 04:0014,20
23/07/2019 05:0014,40
23/07/2019 06:0014,15
23/07/2019 07:0013,55
23/07/2019 08:0015,45
23/07/2019 09:0020,60
23/07/2019 10:0023,40
23/07/2019 11:0025,15
23/07/2019 12:0028,65
23/07/2019 13:0030,05
23/07/2019 14:0029,80
23/07/2019 15:0030,75
23/07/2019 16:0030,80
23/07/2019 17:0030,95
23/07/2019 18:0031,75
23/07/2019 19:0032,35
23/07/2019 20:0027,30
23/07/2019 21:0023,75
23/07/2019 22:0021,00
23/07/2019 23:0020,40
24/07/2019 00:0020,60
24/07/2019 01:0018,95
24/07/2019 02:0018,10
24/07/2019 03:0016,75
24/07/2019 04:0015,65
24/07/2019 05:0014,25
24/07/2019 06:0013,30
24/07/2019 07:0012,85
24/07/2019 08:0016,15
24/07/2019 09:0020,00
24/07/2019 10:0022,90
24/07/2019 11:0026,20
24/07/2019 12:0028,25
24/07/2019 13:0029,40
24/07/2019 14:0031,35
24/07/2019 15:0031,25
24/07/2019 16:0031,20
24/07/2019 17:0031,70
24/07/2019 18:0032,00
24/07/2019 19:0032,05
24/07/2019 20:0031,25
24/07/2019 21:0026,70
24/07/2019 22:0022,20
24/07/2019 23:0019,85
25/07/2019 00:0017,60
25/07/2019 01:0016,20
25/07/2019 02:0015,30
25/07/2019 03:0015,50
25/07/2019 04:0014,60
25/07/2019 05:0013,55
25/07/2019 06:0013,65
25/07/2019 07:0013,40
25/07/2019 08:0015,50
25/07/2019 09:0018,65
25/07/2019 10:0022,95
25/07/2019 11:0026,40
25/07/2019 12:0028,35
25/07/2019 13:0028,60
25/07/2019 14:0029,40
25/07/2019 15:0030,35
25/07/2019 16:0030,40
25/07/2019 17:0030,60
25/07/2019 18:0030,20
25/07/2019 19:0028,40
25/07/2019 20:0028,15
25/07/2019 21:0020,40
25/07/2019 22:0018,85
25/07/2019 23:0017,95
26/07/2019 00:0017,55
26/07/2019 01:0017,00
26/07/2019 02:0016,80
26/07/2019 03:0016,20
26/07/2019 04:0016,10
26/07/2019 05:0015,75
26/07/2019 06:0015,50
26/07/2019 07:0015,85
26/07/2019 08:0016,70
26/07/2019 09:0018,05
26/07/2019 10:0017,15
26/07/2019 11:0016,50
26/07/2019 12:0017,35
26/07/2019 13:0017,45
26/07/2019 14:0019,25
26/07/2019 15:0018,95
26/07/2019 16:0019,15
26/07/2019 17:0018,05
26/07/2019 18:0017,65
26/07/2019 19:0016,60
26/07/2019 20:0016,25
26/07/2019 21:0014,85
26/07/2019 22:0014,15
26/07/2019 23:0013,80
27/07/2019 00:0012,90
27/07/2019 01:0011,55
27/07/2019 02:0011,45
27/07/2019 03:0011,10
27/07/2019 04:0011,35
27/07/2019 05:0011,45
27/07/2019 06:0011,10
27/07/2019 07:0011,10
27/07/2019 08:0011,00
27/07/2019 09:0011,40
27/07/2019 10:0011,60
27/07/2019 11:0011,70
27/07/2019 12:0012,10
27/07/2019 13:0013,00
27/07/2019 14:0013,20
27/07/2019 15:0012,75
27/07/2019 16:0014,70
27/07/2019 17:0014,15
27/07/2019 18:0016,75
27/07/2019 19:0016,70
27/07/2019 20:0015,45
27/07/2019 21:0013,35
27/07/2019 22:0012,75
27/07/2019 23:0012,10
28/07/2019 00:0012,05
28/07/2019 01:0011,40
28/07/2019 02:009,95
28/07/2019 03:008,30
28/07/2019 04:007,70
28/07/2019 05:006,65
28/07/2019 06:006,40
28/07/2019 07:006,30
28/07/2019 08:007,80
28/07/2019 09:0010,00
28/07/2019 10:0012,10
28/07/2019 11:0013,90
28/07/2019 12:0017,10
28/07/2019 13:0018,50
28/07/2019 14:0020,25
28/07/2019 15:0021,05
28/07/2019 16:0022,10
28/07/2019 17:0022,75
28/07/2019 18:0023,35
28/07/2019 19:0023,75
28/07/2019 20:0023,00
28/07/2019 21:0019,15
28/07/2019 22:0014,45
28/07/2019 23:0013,10
29/07/2019 00:0011,50
29/07/2019 01:0010,75
29/07/2019 02:009,95
29/07/2019 03:009,30
29/07/2019 04:009,00
29/07/2019 05:007,80
29/07/2019 06:007,25
29/07/2019 07:007,00
29/07/2019 08:009,65
29/07/2019 09:0012,95
29/07/2019 10:0016,95
29/07/2019 11:0019,90
29/07/2019 12:0021,65
29/07/2019 13:0022,15
29/07/2019 14:0022,50
29/07/2019 15:0023,45
29/07/2019 16:0024,15
29/07/2019 17:0023,80
29/07/2019 18:0024,10
29/07/2019 19:0020,60
29/07/2019 20:0016,95
29/07/2019 21:0014,10
29/07/2019 22:0012,75
29/07/2019 23:0012,15
30/07/2019 00:0011,70
30/07/2019 01:0012,05
30/07/2019 02:0012,10
30/07/2019 03:0011,55
30/07/2019 04:0011,35
30/07/2019 05:0010,50
30/07/2019 06:0010,20
30/07/2019 07:0010,35
30/07/2019 08:0010,85
30/07/2019 09:0012,35
30/07/2019 10:0014,65
30/07/2019 11:0015,65
30/07/2019 12:0016,25
30/07/2019 13:0018,10
30/07/2019 14:0018,80
30/07/2019 15:0018,60
30/07/2019 16:0019,00
30/07/2019 17:0018,95
30/07/2019 18:0018,55
30/07/2019 19:0017,05
30/07/2019 20:0016,40
30/07/2019 21:0013,05
30/07/2019 22:0011,40
30/07/2019 23:0010,05
31/07/2019 00:008,75
31/07/2019 01:008,10
31/07/2019 02:007,30
31/07/2019 03:006,75
31/07/2019 04:006,10
31/07/2019 05:005,80
31/07/2019 06:005,50
31/07/2019 07:005,70
31/07/2019 08:008,30
31/07/2019 09:0010,50
31/07/2019 10:0012,45
31/07/2019 11:0017,00
31/07/2019 12:0018,80
31/07/2019 13:0020,45
31/07/2019 14:0020,50
31/07/2019 15:0021,85
31/07/2019 16:0021,80
31/07/2019 17:0021,35
31/07/2019 18:0021,15
31/07/2019 19:0020,15
31/07/2019 20:0018,75
31/07/2019 21:0016,75
31/07/2019 22:0015,40
31/07/2019 23:0014,45
01/08/2019 00:0013,40
01/08/2019 01:0012,00
01/08/2019 02:0010,80
01/08/2019 03:0010,10
01/08/2019 04:009,60
01/08/2019 05:009,15
01/08/2019 06:008,85
01/08/2019 07:008,80
01/08/2019 08:009,85
01/08/2019 09:0012,70
01/08/2019 10:0016,00
01/08/2019 11:0018,40
01/08/2019 12:0019,05
01/08/2019 13:0020,60
01/08/2019 14:0021,70
01/08/2019 15:0022,45
01/08/2019 16:0022,70
01/08/2019 17:0022,45
01/08/2019 18:0022,65
01/08/2019 19:0021,15
01/08/2019 20:0019,45
01/08/2019 21:0016,25
01/08/2019 22:0014,20
01/08/2019 23:0013,35
02/08/2019 00:0011,85
02/08/2019 01:0010,70
02/08/2019 02:009,95
02/08/2019 03:009,30
02/08/2019 04:0010,40
02/08/2019 05:0011,15
02/08/2019 06:0011,30
02/08/2019 07:0011,15
02/08/2019 08:0010,90
02/08/2019 09:0011,65
02/08/2019 10:0013,35
02/08/2019 11:0018,00
02/08/2019 12:0022,80
02/08/2019 13:0024,70
02/08/2019 14:0026,45
02/08/2019 15:0027,40
02/08/2019 16:0027,65
02/08/2019 17:0027,80
02/08/2019 18:0027,90
02/08/2019 19:0027,45
02/08/2019 20:0025,80
02/08/2019 21:0021,45
02/08/2019 22:0018,30
02/08/2019 23:0015,25
03/08/2019 00:0013,55
03/08/2019 01:0012,15
03/08/2019 02:0010,95
03/08/2019 03:0010,90
03/08/2019 04:0010,95
03/08/2019 05:0010,65
03/08/2019 06:0010,35
03/08/2019 07:009,90
03/08/2019 08:0012,35
03/08/2019 09:0016,85
03/08/2019 10:0021,60
03/08/2019 11:0024,80
03/08/2019 12:0026,95
03/08/2019 13:0028,60
03/08/2019 14:0029,20
03/08/2019 15:0029,90
03/08/2019 16:0030,35
03/08/2019 17:0028,80
03/08/2019 18:0029,60
03/08/2019 19:0027,55
03/08/2019 20:0025,10
03/08/2019 21:0022,30
03/08/2019 22:0019,00
03/08/2019 23:0016,85
04/08/2019 00:0015,60
04/08/2019 01:0014,10
04/08/2019 02:0013,20
04/08/2019 03:0012,50
04/08/2019 04:0011,40
04/08/2019 05:0010,80
04/08/2019 06:0010,10
04/08/2019 07:009,85
04/08/2019 08:0011,10
04/08/2019 09:0014,35
04/08/2019 10:0017,60
04/08/2019 11:0020,10
04/08/2019 12:0022,75
04/08/2019 13:0024,75
04/08/2019 14:0027,15
04/08/2019 15:0029,40
04/08/2019 16:0029,55
04/08/2019 17:0029,75
04/08/2019 18:0026,95
04/08/2019 19:0023,85
04/08/2019 20:0021,05
04/08/2019 21:0018,60
04/08/2019 22:0015,95
04/08/2019 23:0014,85
05/08/2019 00:0013,70
05/08/2019 01:0013,00
05/08/2019 02:0011,40
05/08/2019 03:0011,05
05/08/2019 04:0011,90
05/08/2019 05:0011,20
05/08/2019 06:0010,15
05/08/2019 07:009,25
05/08/2019 08:0010,45
05/08/2019 09:0014,05
05/08/2019 10:0017,50
05/08/2019 11:0021,15
05/08/2019 12:0023,55
05/08/2019 13:0025,85
05/08/2019 14:0027,40
05/08/2019 15:0029,15
05/08/2019 16:0029,90
05/08/2019 17:0028,40
05/08/2019 18:0027,30
05/08/2019 19:0026,00
05/08/2019 20:0023,25
05/08/2019 21:0019,95
05/08/2019 22:0018,25
05/08/2019 23:0016,30
06/08/2019 00:0014,85
06/08/2019 01:0013,40
06/08/2019 02:0012,40
06/08/2019 03:0011,75
06/08/2019 04:0011,05
06/08/2019 05:0010,45
06/08/2019 06:0010,00
06/08/2019 07:009,95
06/08/2019 08:0011,60
06/08/2019 09:0016,80
06/08/2019 10:0019,80
06/08/2019 11:0021,95
06/08/2019 12:0024,70
06/08/2019 13:0026,85
06/08/2019 14:0027,65
06/08/2019 15:0028,25
06/08/2019 16:0027,45
06/08/2019 17:0027,35
06/08/2019 18:0025,95
06/08/2019 19:0023,00
06/08/2019 20:0020,40
06/08/2019 21:0019,10
06/08/2019 22:0017,80
06/08/2019 23:0016,20
07/08/2019 00:0015,50
07/08/2019 01:0015,25
07/08/2019 02:0015,30
07/08/2019 03:0015,30
07/08/2019 04:0014,80
07/08/2019 05:0014,60
07/08/2019 06:0014,10
07/08/2019 07:0013,40
07/08/2019 08:0014,00
07/08/2019 09:0016,15
07/08/2019 10:0018,90
07/08/2019 11:0021,05
07/08/2019 12:0022,55
07/08/2019 13:0023,30
07/08/2019 14:0023,65
07/08/2019 15:0023,80
07/08/2019 16:0023,10
07/08/2019 17:0021,05
07/08/2019 18:0021,55
07/08/2019 19:0019,95
07/08/2019 20:0019,60
07/08/2019 21:0019,45
07/08/2019 22:0018,00
07/08/2019 23:0017,10
08/08/2019 00:0016,80
08/08/2019 01:0015,50
08/08/2019 02:0015,45
08/08/2019 03:0018,20
08/08/2019 04:0016,80
08/08/2019 05:0016,70
08/08/2019 06:0016,65
08/08/2019 07:0016,90
08/08/2019 08:0016,70
08/08/2019 09:0017,80
08/08/2019 10:0018,95
08/08/2019 11:0018,90
08/08/2019 12:0019,60
08/08/2019 13:0020,80
08/08/2019 14:0021,60
08/08/2019 15:0023,75
08/08/2019 16:0025,75
08/08/2019 17:0024,95
08/08/2019 18:0025,05
08/08/2019 19:0026,30
08/08/2019 20:0025,20
08/08/2019 21:0024,25
08/08/2019 22:0023,20
08/08/2019 23:0021,95
09/08/2019 00:0021,60
09/08/2019 01:0021,50
09/08/2019 02:0021,00
09/08/2019 03:0020,55
09/08/2019 04:0020,00
09/08/2019 05:0019,50
09/08/2019 06:0019,25
09/08/2019 07:0019,10
09/08/2019 08:0019,00
09/08/2019 09:0018,55
09/08/2019 10:0017,15
09/08/2019 11:0018,35
09/08/2019 12:0019,45
09/08/2019 13:0022,40
09/08/2019 14:0023,00
09/08/2019 15:0024,55
09/08/2019 16:0024,50
09/08/2019 17:0024,80
09/08/2019 18:0022,80
09/08/2019 19:0021,90
09/08/2019 20:0020,70
09/08/2019 21:0019,65
09/08/2019 22:0018,60
09/08/2019 23:0016,65
10/08/2019 00:0014,70
10/08/2019 01:0014,30
10/08/2019 02:0014,15
10/08/2019 03:0014,10
10/08/2019 04:0013,50
10/08/2019 05:0012,85
10/08/2019 06:0012,05
10/08/2019 07:0011,30
10/08/2019 08:0011,05
10/08/2019 09:0014,70
10/08/2019 10:0016,70
10/08/2019 11:0018,20
10/08/2019 12:0020,60
10/08/2019 13:0022,10
10/08/2019 14:0023,10
10/08/2019 15:0023,95
10/08/2019 16:0024,20
10/08/2019 17:0023,40
10/08/2019 18:0022,00
10/08/2019 19:0019,80
10/08/2019 20:0016,55
10/08/2019 21:0013,75
10/08/2019 22:0012,35
10/08/2019 23:0011,40
11/08/2019 00:0010,65
11/08/2019 01:0011,05
11/08/2019 02:0011,95
11/08/2019 03:0012,60
11/08/2019 04:0011,00
11/08/2019 05:0010,55
11/08/2019 06:0010,30
11/08/2019 07:0010,35
11/08/2019 08:0010,80
11/08/2019 09:0011,55
11/08/2019 10:0013,20
11/08/2019 11:0014,30
11/08/2019 12:0016,70
11/08/2019 13:0016,25
11/08/2019 14:0013,85
11/08/2019 15:0016,50
11/08/2019 16:0015,60
11/08/2019 17:0016,80
11/08/2019 18:0016,60
11/08/2019 19:0015,10
11/08/2019 20:0013,25
11/08/2019 21:0012,65
11/08/2019 22:0011,85
11/08/2019 23:0010,80
12/08/2019 00:0010,90
12/08/2019 01:0010,00
12/08/2019 02:008,45
12/08/2019 03:007,10
12/08/2019 04:006,50
12/08/2019 05:005,75
12/08/2019 06:005,30
12/08/2019 07:004,80
12/08/2019 08:005,95
12/08/2019 09:008,75
12/08/2019 10:0011,70
12/08/2019 11:0013,85
12/08/2019 12:0016,00
12/08/2019 13:0017,20
12/08/2019 14:0017,80
12/08/2019 15:0018,10
12/08/2019 16:0018,15
12/08/2019 17:0018,50
12/08/2019 18:0017,10
12/08/2019 19:0014,95
12/08/2019 20:0013,05
12/08/2019 21:0012,25
12/08/2019 22:0011,15
12/08/2019 23:0010,50
13/08/2019 00:009,60
13/08/2019 01:009,20
13/08/2019 02:008,10
13/08/2019 03:007,65
13/08/2019 04:006,80
13/08/2019 05:005,75
13/08/2019 06:004,95
13/08/2019 07:004,50
13/08/2019 08:005,55
13/08/2019 09:008,85
13/08/2019 10:0012,10
13/08/2019 11:0014,50
13/08/2019 12:0016,80
13/08/2019 13:0017,85
13/08/2019 14:0019,25
13/08/2019 15:0020,60
13/08/2019 16:0021,60
13/08/2019 17:0021,60
13/08/2019 18:0021,50
13/08/2019 19:0020,85
13/08/2019 20:0018,70
13/08/2019 21:0016,15
13/08/2019 22:0013,05
13/08/2019 23:0011,65
14/08/2019 00:0010,35
14/08/2019 01:009,40
14/08/2019 02:008,90
14/08/2019 03:008,65
14/08/2019 04:008,60
14/08/2019 05:008,60
14/08/2019 06:008,70
14/08/2019 07:008,20
14/08/2019 08:009,25
14/08/2019 09:0013,05
14/08/2019 10:0016,50
14/08/2019 11:0019,05
14/08/2019 12:0021,85
14/08/2019 13:0025,30
14/08/2019 14:0025,95
14/08/2019 15:0025,20
14/08/2019 16:0025,95
14/08/2019 17:0026,65
14/08/2019 18:0026,80
14/08/2019 19:0026,25
14/08/2019 20:0022,55
14/08/2019 21:0019,10
14/08/2019 22:0016,45
14/08/2019 23:0015,00
15/08/2019 00:0014,25
15/08/2019 01:0012,85
15/08/2019 02:0012,10
15/08/2019 03:0011,95
15/08/2019 04:0012,55
15/08/2019 05:0012,10
15/08/2019 06:0011,55
15/08/2019 07:0011,35
15/08/2019 08:0011,50
15/08/2019 09:0012,60
15/08/2019 10:0015,40
15/08/2019 11:0017,80
15/08/2019 12:0020,05
15/08/2019 13:0021,05
15/08/2019 14:0022,10
15/08/2019 15:0022,50
15/08/2019 16:0022,65
15/08/2019 17:0022,40
15/08/2019 18:0022,10
15/08/2019 19:0020,95
15/08/2019 20:0018,50
15/08/2019 21:0015,85
15/08/2019 22:0014,60
15/08/2019 23:0013,25
16/08/2019 00:0013,35
16/08/2019 01:0013,25
16/08/2019 02:0013,00
16/08/2019 03:0012,05
16/08/2019 04:0011,50
16/08/2019 05:0010,35
16/08/2019 06:009,75
16/08/2019 07:009,65
16/08/2019 08:0011,15
16/08/2019 09:0014,75
16/08/2019 10:0019,40
16/08/2019 11:0023,35
16/08/2019 12:0026,40
16/08/2019 13:0028,00
16/08/2019 14:0028,75
16/08/2019 15:0029,60
16/08/2019 16:0029,65
16/08/2019 17:0030,25
16/08/2019 18:0031,10
16/08/2019 19:0028,50
16/08/2019 20:0024,55
16/08/2019 21:0020,20
16/08/2019 22:0017,35
16/08/2019 23:0015,85
17/08/2019 00:0014,05
17/08/2019 01:0013,05
17/08/2019 02:0012,40
17/08/2019 03:0012,05
17/08/2019 04:0011,10
17/08/2019 05:0010,45
17/08/2019 06:0010,05
17/08/2019 07:009,80
17/08/2019 08:0011,75
17/08/2019 09:0015,65
17/08/2019 10:0018,75
17/08/2019 11:0021,85
17/08/2019 12:0025,35
17/08/2019 13:0027,40
17/08/2019 14:0029,45
17/08/2019 15:0029,90
17/08/2019 16:0030,35
17/08/2019 17:0030,10
17/08/2019 18:0030,30
17/08/2019 19:0030,05
17/08/2019 20:0028,15
17/08/2019 21:0021,50
17/08/2019 22:0017,80
17/08/2019 23:0015,15
18/08/2019 00:0013,65
18/08/2019 01:0012,65
18/08/2019 02:0011,85
18/08/2019 03:0010,55
18/08/2019 04:009,75
18/08/2019 05:009,05
18/08/2019 06:008,25
18/08/2019 07:008,10
18/08/2019 08:009,80
18/08/2019 09:0013,65
18/08/2019 10:0018,75
18/08/2019 11:0021,10
18/08/2019 12:0022,60
18/08/2019 13:0024,20
18/08/2019 14:0024,20
18/08/2019 15:0022,70
18/08/2019 16:0018,75
18/08/2019 17:0019,45
18/08/2019 18:0016,80
18/08/2019 19:0018,15
18/08/2019 20:0016,90
18/08/2019 21:0015,25
18/08/2019 22:0014,40
18/08/2019 23:0014,05
19/08/2019 00:0013,95
19/08/2019 01:0013,20
19/08/2019 02:0012,15
19/08/2019 03:0012,30
19/08/2019 04:0012,40
19/08/2019 05:0012,45
19/08/2019 06:0011,85
19/08/2019 07:0011,30
19/08/2019 08:0011,55
19/08/2019 09:0013,15
19/08/2019 10:0014,80
19/08/2019 11:0016,70
19/08/2019 12:0017,60
19/08/2019 13:0017,40
19/08/2019 14:0018,20
19/08/2019 15:0018,15
19/08/2019 16:0017,60
19/08/2019 17:0017,20
19/08/2019 18:0016,40
19/08/2019 19:0015,80
19/08/2019 20:0015,20
19/08/2019 21:0013,30
19/08/2019 22:0012,60
19/08/2019 23:0012,05
20/08/2019 00:0011,90
20/08/2019 01:0011,95
20/08/2019 02:0012,20
20/08/2019 03:0012,00
20/08/2019 04:0010,55
20/08/2019 05:009,55
20/08/2019 06:008,60
20/08/2019 07:007,65
20/08/2019 08:007,65
20/08/2019 09:0012,95
20/08/2019 10:0014,75
20/08/2019 11:0015,95
20/08/2019 12:0018,05
20/08/2019 13:0018,15
20/08/2019 14:0018,10
20/08/2019 15:0018,95
20/08/2019 16:0018,80
20/08/2019 17:0018,50
20/08/2019 18:0018,50
20/08/2019 19:0018,20
20/08/2019 20:0015,60
20/08/2019 21:0014,00
20/08/2019 22:0011,25
20/08/2019 23:009,00
21/08/2019 00:007,80
21/08/2019 01:007,40
21/08/2019 02:007,05
21/08/2019 03:007,05
21/08/2019 04:007,15
21/08/2019 05:007,75
21/08/2019 06:007,40
21/08/2019 07:006,45
21/08/2019 08:007,60
21/08/2019 09:0010,55
21/08/2019 10:0013,40
21/08/2019 11:0017,05
21/08/2019 12:0020,15
21/08/2019 13:0022,40
21/08/2019 14:0023,85
21/08/2019 15:0024,40
21/08/2019 16:0024,65
21/08/2019 18:0023,40
21/08/2019 19:0022,90
 
© 2019 saihduero.es